Location: Dunedin
(45.8670°S, 170.5000°E)
Time: 16:24:16
(UTC+13:00)

Helios 1B rocket - Pass Details

Date: 24 January 2019
Orbit: 575 x 586 km, 98.2° (Epoch: 16 February)

Event Time Altitude Azimuth Distance (km) Brightness Sun altitude
Exits shadow 23:00:41 24° 32° (NNE) 1,213 3.4 -14.5°
Maximum altitude 23:03:01 64° 107° (ESE) 657 2.5 -14.7°
Drops below altitude 10° 23:07:09 10° 188° (S) 1,932 6.0 -15.2°
Sets 23:09:21 0° 190° (S) 2,843 7.1 -15.4°
